096  
ASUS44 KLIX 211113  
RWRLA  
LOUISIANA WEATHER ROUNDUP  
NATIONAL WEATHER SERVICE NEW ORLEANS LA  
500 AM CST TUE NOV 21 2017  
 
NOTE: "FAIR" INDICATES FEW OR NO CLOUDS BELOW 12,000 FEET WITH NO  
SIGNIFICANT WEATHER AND/OR S TO VISIBILITY
.  
SKY/WX - SKY CONDITION AND SIGNIFICANT WEATHER.  
TMP - AIR TEMPERATURE. DP - DEWPOINT TEMPERATURE.  
RH - RELATIVE HUMIDITY. PRES - PRESSURE.  
HX - HEAT INDEX. WCI - WIND CHILL INDEX.  
 
* THESE STATIONS ARE NOT NWS OR FAA STATIONS AND ARE NOT UNDER  
NWS QUALITY CONTROL.  
 
LAZ040-048-061>063-065-066-069-211200-  
SOUTHEAST LOUISIANA  
 
CITY SKY/WX TMP DP RH WIND PRES REMARKS
 
N.O. INTL ARPT MOCLDY 52 49 89 E5 30.02F  
N.O. LAKEFRONT CLEAR 57 48 72 E9 30.02F  
N.O. DOWNTOWN* FAIR 55 45 68 NE7 30.03F  
RESERVE* FAIR 50 48 92 CALM 30.02F FOG  
SLIDELL PTCLDY 44 41 89 CALM 30.03F  
BATON ROUGE CLEAR 43 40 89 E5 30.01F  
BOOTHVILLE LGT RAIN 63 59 87 N3 30.01F  
BELLE CHASSE PTCLDY 49 49 100 N3 30.02F  
BOGALUSA* NOT AVBL  
GALLIANO* CLOUDY 55 51 87 NE3 30.02S  
NEW ROADS* FAIR 42 40 93 CALM 30.01F  
GONZALES* FAIR 45 45 99 CALM 30.01F FOG  
HAMMOND* CLEAR 41 39 93 CALM 30.02F  
HOUMA* CLOUDY 51 49 96 CALM 30.01F FOG  
PORT FOURCHON* NOT AVBL  
 

 
 
LAZ041-044-053-054-211200-  
SOUTHWEST LOUISIANA  
 
CITY SKY/WX TMP DP RH WIND PRES REMARKS
 
LAKE CHARLES CLOUDY 52 47 83 E6 29.97F  
LAFAYETTE PTCLDY 49 47 93 CALM 29.99F  
PATTERSON PTCLDY 52 49 89 NE5 30.00F  
SALT POINT N/A 1 32 100 CALM 29.98F  
NEW IBERIA CLEAR 48 44 86 E6 29.99F  
CHENAULT AIRPK CLOUDY 50 46 87 E6 29.98S  
 

 
 
LAZ027-028-211200-  
CENTRAL LOUISIANA  
 
CITY SKY/WX TMP DP RH WIND PRES REMARKS
 
FORT POLK CLEAR 42 36 79 CALM 29.98S  
ALEXANDRIA INT CLEAR 37 35 92 CALM 29.99R  
ALEXANDRIA CLEAR 32 32 100 CALM 29.99S  
 

 
 
LAZ001-002-211200-  
NORTHWEST LOUISIANA  
 
CITY SKY/WX TMP DP RH WIND PRES REMARKS
 
SHREVEPORT PTCLDY 38 37 97 SE3 29.96S  
BARKSDALE AFB PTCLDY 39 35 85 SE5 29.96F  
DTN SHREVEPORT CLEAR 43 37 79 SE5 29.97F  
 

 
 
LAZ014-016-211200-  
NORTHEAST LOUISIANA  
 
CITY SKY/WX TMP DP RH WIND PRES REMARKS
 
MONROE CLOUDY 34 32 92 CALM 30.02R  
TALLULAH CLEAR 34 34 100 CALM 30.03R  
 

 
 
 
 
CLICK HERE TO GO TO PREVIOUS BULLETINS.

The Nexlab LA Page Main Text Page